Miscellaneous Local Product
Issued by NWS North Platte, NE

Home | Current Version | Previous Version | Text Only | Print | Product List | Glossary On
Versions: 1 2 3 4 5 6 7 8 9 10 11 12 13 14 15 16 17 18 19 20 21 22 23 24 25 26 27 28 29 30 31 32 33 34 35 36 37 38 39 40 41 42 43 44 45 46 47 48 49 50
000
AXUS43 KLBF 232310
MISLBF


WESTERN AND NORTH CENTRAL NEBRASKA HOURLY WEATHER ROUNDUP
NATIONAL WEATHER SERVICE NORTH PLATTE NE
600 PM CDT WED APR 23 2014

***STATIONS NOT REPORTING VARIABLES SUCH AS SKY/WEATHER OR
PRESSURE ARE PROVIDED BY THE NEBRASKA DEPARTMENT OF
ROADS...RAWS...AND APRS NETWORKS...AND ARE NOT UNDER
NATIONAL WEATHER SERVICE QUALITY CONTROL***

...OBSERVATIONS IN AND NEAR THE EASTERN PANHANDLE OF NEBRASKA...

CITY           SKY/WX    TMP DP  RH WIND       PRES   REMARKS
PINE RIDGE     CLOUDY    60  41  49 N17G28    29.64R
CHADRON        CLOUDY    63  31  30 NW15G23   29.65R
ALLIANCE       CLOUDY    63  17  17 NW17G28   29.64S
SIDNEY         CLOUDY    61  22  22 N28G33    29.70R
WHITECLAY        N/A     62  41  44 E13         N/A
CRESCENT LAKE    N/A     64  20  18 NW16G29     N/A
LISCO            N/A     67   6   9 W22         N/A
BIG SPRINGS      N/A     71  27  19 N14         N/A
LEWELLEN         N/A     75  17  11 W17         N/A
$$

...OBSERVATIONS IN SOUTHWEST NEBRASKA AND FAR NORTHEAST COLORADO...

CITY           SKY/WX    TMP DP  RH WIND       PRES   REMARKS
WRAY           FAIR      72  29  20 N23G32    29.57S
HOLYOKE        FAIR      72  28  20 N25G33    29.62R
IMPERIAL       MOSUNNY   74  26  16 N22G32    29.56F
OGALLALA       MOSUNNY   72  22  15 N17G28    29.60R
NORTH PLATTE   PTSUNNY   74  33  22 NW16G23   29.55S
MCCOOK         MOSUNNY   80  41  24 N21       29.47F
LEXINGTON      MOSUNNY   80  43  27 N14G25    29.48F
PAXTON           N/A     76  30  18 NW13        N/A
SUTHERLAND       N/A     78  23  13 S16         N/A
GOTHENBURG       N/A     78  39  24 N10         N/A
CALLAWAY         N/A     78  40  26 NE12        N/A
$$

...OBSERVATIONS IN NORTH CENTRAL NEBRASKA...

CITY           SKY/WX    TMP DP  RH WIND       PRES   REMARKS
VALENTINE      MOSUNNY   74  20  13 W22G31    29.56R
THEDFORD       SUNNY     74  20  12 NW13G28   29.59S
AINSWORTH      MOSUNNY   77  26  15 NW21      29.56R
O`NEILL        MOSUNNY   80  37  21 W13G18    29.50R
ORD            MOSUNNY   80  44  27 NW13      29.48R
BROKEN BOW     SUNNY     79  28  15 N16       29.52F
BROWNLEE         N/A     76  26  15 NW21        N/A
SPRINGVIEW       N/A     77  35  21 W8G18       N/A
DUNNING          N/A     76  27  16 W15         N/A
BREWSTER         N/A     80  33  18 NW18        N/A
ROSE             N/A     80  45  28 SW14        N/A
NEWPORT          N/A     75  46  35 NW16        N/A
COMSTOCK         N/A     86  42  21 W16         N/A
CHAMBERS         N/A     81  46  28 W6          N/A
EWING            N/A     75  49  39 S10G20      N/A
$$

...SOME WEATHER OBSERVATIONS FROM AROUND THE REGION...

CITY           SKY/WX    TMP DP  RH WIND       PRES   REMARKS
DENVER         CLOUDY    60  32  34 NE26G33   29.62R
LARAMIE        CLOUDY    46  16  30 W35G43    29.79S
CHEYENNE       CLOUDY    51  21  30 NW26G40   29.70R
SCOTTSBLUFF    CLOUDY    62  17  17 W18G31    29.68R
RAPID CITY     PTSUNNY   57  37  47 N29G37    29.64R
PIERRE         CLOUDY    71  44  37 NW21      29.52R
WINNER         PTSUNNY   75  43  31 NW12      29.52R
SIOUX FALLS    PTSUNNY   62  41  46 SE18G32   29.63F
OMAHA          CLOUDY    55  44  66 SE24G32   29.66F
GRAND ISLAND   CLOUDY    69  55  60 S18G32    29.51F
KANSAS CITY    PTSUNNY   71  43  36 SE21G31   29.75F
WICHITA        CLOUDY    82  44  26 S23G30    29.63F
HAYS           CLOUDY   N/A N/A N/A S38G48    29.49F
LIBERAL        PTSUNNY   79  57  47 SE25G35   29.52F
GOODLAND       MOSUNNY   78  40  25 NE23G30   29.51S
$$



USA.gov is the U.S. government's official web portal to all federal, state and local government web resources and services.